Temperature
16 17 17 17 20 21 21 20 19 18 18 16 16 17 18 18 18 17 12 12 12 12 13 13 13 13 13 13 14 14 14 14 14 14 14 14 14 14 14 14 14 14 15 15 15 15 15 15 15
16 17 17 18 21 21 20 19 18 18 17 15 15 16 16 15 13 12 12 12 12 12 12 12 13 13 13 13 13 13 14 14 14 14 14 14 14 14 14 14 14 14 14 14 15 15 15 15 15
16 16 17 20 20 21 20 18 18 16 15 15 15 14 15 14 12 11 11 12 12 12 12 12 13 13 13 13 13 13 13 13 13 14 14 14 14 14 14 14 14 14 14 14 14 15 14 14 15
16 16 18 20 19 18 18 18 17 16 15 14 15 15 13 11 11 11 11 12 11 12 12 12 12 12 13 13 13 13 13 13 13 13 13 13 13 13 14 14 14 14 14 14 14 14 14 14 14
16 17 19 18 18 17 17 16 16 17 16 15 15 15 13 11 11 11 11 11 11 11 11 12 12 12 12 12 13 13 13 13 13 13 13 13 13 13 13 13 13 13 13 14 14 14 14 14 14
16 18 19 19 18 17 16 15 15 16 15 14 14 15 12 10 11 11 11 11 11 11 11 11 12 12 12 12 12 12 12 12 12 13 13 13 13 13 13 13 13 13 13 13 13 13 14 14 14
17 18 18 18 17 16 16 14 15 16 15 14 13 14 12 10 10 10 11 11 11 11 11 11 11 11 12 12 12 12 12 12 12 12 12 12 13 13 13 13 13 13 13 13 13 13 13 13 13
15 17 17 17 17 16 15 13 13 14 14 11 11 14 12 9 10 10 10 10 11 11 11 11 11 11 11 11 11 12 12 12 12 12 12 12 12 12 12 12 12 12 12 12 13 13 13 13 13
14 17 17 16 16 15 14 13 12 11 11 10 10 10 9 9 10 10 10 10 10 10 10 10 10 11 11 11 11 11 11 11 11 11 12 12 12 12 12 12 12 12 12 12 12 12 12 12 12
14 16 16 15 15 15 13 13 12 12 12 11 9 9 9 9 9 9 9 10 10 10 10 10 10 10 10 11 11 11 11 11 11 11 11 11 11 11 11 11 11 11 11 12 12 12 12 12 12
13 14 14 13 12 12 12 11 11 12 12 11 10 9 8 8 8 9 9 9 9 9 9 9 10 10 10 10 10 10 10 10 10 10 10 10 10 11 11 11 11 11 11 11 11 11 11 11 11
12 12 12 11 10 11 11 11 11 11 10 9 9 8 8 8 8 8 8 8 8 9 9 9 9 9 9 10 10 10 10 10 10 10 10 10 10 10 10 10 10 10 10 10 10 10 10 10 10
12 11 10 9 9 9 10 10 10 9 8 8 8 8 7 7 7 8 8 8 8 8 8 8 8 9 9 9 9 9 9 9 9 9 9 9 9 9 9 9 9 9 9 9 9 9 9 9 9
11 10 10 10 9 9 10 9 9 8 7 7 7 7 7 7 7 7 7 7 8 8 8 8 8 8 8 8 8 8 8 8 8 9 8 8 9 9 9 9 9 9 9 9 9 9 9 9 9
10 11 11 10 10 9 10 10 10 8 7 7 7 7 6 6 7 7 7 7 7 7 7 7 7 8 8 8 8 8 8 8 8 8 8 8 8 8 8 8 8 8 8 8 8 8 8 8 8
11 12 12 11 10 9 10 11 10 7 7 7 7 6 6 6 6 6 7 6 6 6 7 7 7 7 7 7 7 7 7 7 7 7 7 7 7 7 7 7 7 7 7 7 7 7 7 7 7
11 12 12 11 10 9 10 11 9 7 7 7 7 6 6 5 6 6 6 6 6 6 6 6 6 6 6 6 6 6 6 6 6 6 6 6 6 6 7 6 6 6 7 7 6 7 7 7 7
11 12 11 11 10 9 10 10 9 7 7 7 7 6 6 6 5 5 6 6 6 6 6 6 6 6 6 6 6 6 5 5 5 5 5 6 6 6 6 6 6 6 6 6 6 6 6 6 6
10 10 10 10 9 9 9 9 9 7 7 7 7 6 6 5 5 5 5 5 5 5 5 5 5 5 5 5 5 5 5 5 5 5 5 5 5 5 5 5 5 5 5 5 5 5 5 5 5
10 10 10 9 8 8 8 9 9 8 7 7 7 6 6 5 5 4 4 4 4 4 5 5 5 5 5 4 4 4 4 4 4 4 4 4 4 4 4 4 4 4 4 4 4 4 4 4 4
9 9 9 9 8 7 8 9 9 8 6 6 5 5 5 5 4 4 4 4 4 4 4 4 4 4 4 4 4 4 4 3 3 3 3 3 3 3 3 3 3 3 3 4 4 3 3 4 4
9 8 8 7 8 9 8 10 10 8 7 6 6 5 5 4 4 3 3 3 3 4 4 4 4 4 4 3 3 3 3 3 3 3 3 3 3 2 3 2 3 3 3 3 3 3 3 3 3
7 7 7 7 8 8 8 8 10 7 7 7 6 5 5 4 3 3 3 3 3 3 3 3 3 3 3 3 3 2 2 2 2 2 2 2 2 2 2 2 2 2 2 2 2 2 2 2 2
6 7 6 7 7 7 7 8 10 9 8 7 6 5 4 3 3 3 3 3 3 3 3 3 3 3 3 2 2 2 2 2 2 2 1 2 2 2 1 1 1 1 2 2 2 2 2 2 2
6 7 8 8 8 9 6 7 9 8 6 6 5 5 4 3 3 2 2 2 2 2 2 2 2 2 2 2 1 1 1 1 1 1 1 1 1 1 1 1 1 1 1 1 1 1 1 1 2
6 7 8 8 9 9 6 7 8 6 5 4 4 3 3 3 2 2 2 2 2 2 2 2 1 1 1 1 1 1 1 1 1 1 1 1 1 1 0 1 1 1 1 1 1 1 1 1 1
6 6 6 6 5 6 8 8 7 6 5 4 4 3 3 2 2 2 2 1 1 1 1 1 1 1 1 1 1 1 1 0 0 0 0 0 0 0 -0 0 0 0 0 0 0 0 1 1 1
5 5 5 6 7 8 9 8 9 6 6 5 4 3 2 2 1 1 1 1 1 1 1 1 0 0 0 0 0 0 0 0 -0 -0 -0 -0 -0 -0 -0 -0 -0 -0 -0 -0 -0 0 0 0 0
4 4 5 5 5 7 8 9 7 6 6 5 4 3 2 1 1 1 1 0 0 0 0 0 0 -0 -0 -0 -0 -0 -0 -0 -1 -1 -1 -1 -1 -1 -1 -1 -1 -1 -1 -1 -1 -1 -0 -0 -0
4 5 5 5 5 5 7 8 5 5 4 3 3 2 2 1 1 0 0 -0 -0 -0 -0 -0 -0 -0 -0 -1 -1 -1 -1 -1 -1 -1 -1 -1 -1 -1 -1 -1 -1 -1 -1 -1 -1 -1 -1 -1 -1
Wind_Speed
5 3 2 2 3 3 5 3 2 3 2 2 2 1 1 2 2 2 3 4 4 3 3 4 6 7 8 8 9 9 10 10 10 10 10 10 10 10 10 11 10 11 10 9 9 9 8 7 7
3 2 2 2 5 6 5 4 4 2 2 2 2 1 2 3 3 3 3 4 3 3 4 4 6 7 8 9 9 9 10 10 9 10 10 10 10 10 10 11 10 11 10 10 10 9 9 8 7
1 1 2 3 4 6 4 4 4 4 2 1 1 2 2 3 3 3 3 2 3 4 4 5 7 7 8 8 9 9 9 9 9 9 9 10 10 10 10 10 10 10 10 10 10 9 9 8 8
2 2 2 4 5 3 2 4 5 5 2 2 1 3 3 4 3 3 3 2 3 4 4 5 7 7 8 8 8 9 8 8 8 8 9 9 9 9 9 9 9 10 10 10 10 9 9 8 8
1 3 4 5 5 3 2 2 4 3 2 2 1 2 2 4 5 4 3 4 4 4 4 5 7 7 7 7 7 8 8 8 7 7 8 8 8 9 9 9 9 9 9 9 9 9 8 8 8
2 3 6 8 6 4 3 3 3 3 2 2 1 2 3 4 5 4 4 4 5 4 4 5 6 7 7 6 7 7 7 7 7 7 7 7 8 8 9 9 9 8 8 8 8 8 7 7 7
3 4 6 7 6 6 4 2 3 3 3 1 0 1 3 3 4 3 4 4 5 5 4 5 5 5 6 7 7 6 7 7 7 7 7 7 7 7 8 9 8 8 8 8 8 8 7 7 6
1 3 4 6 7 6 4 2 1 2 2 2 0 1 1 2 2 3 4 4 5 5 5 5 5 4 4 4 6 7 7 7 7 7 7 7 6 7 7 7 8 8 7 7 7 7 7 6 5
2 4 6 7 6 5 5 3 1 1 3 2 1 2 3 3 3 3 3 3 4 5 5 5 5 5 4 4 5 5 6 6 6 6 6 5 4 4 5 7 8 8 7 7 7 7 6 5 4
2 5 5 2 2 4 5 3 3 3 3 1 1 2 3 3 3 2 2 2 3 4 4 5 5 5 4 3 3 4 4 5 5 5 5 4 4 4 4 6 7 7 7 7 7 6 5 4 3
1 3 2 1 2 3 4 3 2 4 3 2 2 2 2 2 2 1 1 1 2 2 4 4 5 5 4 3 3 3 3 4 4 6 5 4 4 4 4 3 4 4 4 4 4 4 4 4 3
2 1 1 1 2 2 3 3 3 2 2 2 1 2 3 2 1 1 1 1 2 2 3 4 4 4 4 3 3 3 3 3 4 5 6 4 3 3 3 3 3 3 3 3 3 3 4 4 4
3 2 2 3 3 3 2 2 3 2 2 1 2 3 3 2 1 1 1 2 2 2 3 3 4 4 4 3 3 3 3 3 4 4 5 5 4 3 3 3 3 3 3 3 3 3 3 3 3
4 4 3 1 1 1 1 2 3 3 1 2 3 3 2 2 2 1 1 2 2 2 2 3 3 4 4 3 3 3 3 3 3 4 4 5 5 4 3 2 3 3 3 3 3 3 2 2 2
4 3 1 1 1 1 2 3 5 4 3 3 3 3 2 1 1 1 1 1 1 2 2 2 3 4 3 3 3 3 3 3 3 3 4 4 5 4 4 3 2 3 3 3 2 2 2 2 2
2 3 3 1 1 2 5 7 4 3 5 4 3 3 2 1 0 0 1 1 2 2 2 2 2 3 3 3 2 3 3 3 3 3 3 4 4 4 3 3 3 4 3 2 2 2 2 2 2
3 4 5 3 1 2 5 7 3 3 5 5 4 4 3 2 1 0 1 1 1 2 2 2 2 2 2 2 2 2 3 3 3 3 4 4 5 5 4 3 4 4 3 2 2 2 2 2 2
4 5 5 5 2 3 7 8 5 5 6 6 6 5 5 4 2 1 0 1 1 2 2 2 2 2 2 2 1 2 2 3 3 3 4 4 4 5 4 3 4 3 2 2 2 2 2 1 2
3 4 5 5 3 5 8 9 7 6 7 8 7 6 5 5 3 1 0 1 1 2 2 2 2 2 2 1 2 2 2 2 3 3 4 4 4 4 4 3 3 3 2 2 2 2 2 1 2
3 4 5 4 3 5 7 11 8 7 8 8 8 7 6 5 3 2 1 1 1 1 2 2 2 2 2 1 2 2 2 2 2 2 3 4 4 4 4 4 3 3 2 2 2 2 2 2 2
3 5 5 5 4 3 6 8 8 6 7 6 6 6 6 5 4 3 2 1 1 2 2 2 2 2 2 1 1 1 1 1 2 2 3 4 4 4 4 4 3 3 2 2 2 3 3 2 2
5 3 4 4 4 3 3 6 6 5 6 6 6 6 6 5 4 3 3 2 2 2 2 2 2 2 2 1 1 1 2 2 3 3 3 3 4 4 4 4 3 3 2 2 2 2 3 3 2
2 1 2 3 4 5 4 6 5 3 6 6 6 6 6 5 5 4 3 2 2 2 2 2 2 2 2 2 2 2 2 2 2 2 3 3 3 4 4 4 3 3 2 2 3 3 3 2 2
2 1 0 2 3 5 5 7 6 4 5 4 4 5 5 5 4 3 2 1 1 1 1 2 2 2 2 2 2 2 2 3 3 3 3 3 3 3 4 4 4 4 3 3 3 3 3 3 2
2 2 1 2 3 5 2 6 7 3 3 4 4 5 5 5 4 4 3 2 2 2 2 2 2 2 2 2 2 3 3 3 3 3 3 3 3 3 4 4 4 4 4 3 3 3 3 3 3
4 3 3 4 5 4 4 7 5 2 3 4 4 4 4 4 4 4 4 3 2 2 2 2 2 3 3 3 3 3 3 3 3 3 4 4 3 3 4 4 4 4 4 3 3 3 3 3 3
3 3 2 1 2 5 6 6 6 3 4 4 4 4 4 4 4 4 3 3 3 2 3 3 2 3 3 3 3 3 3 3 3 4 4 4 3 4 4 4 4 4 4 4 3 3 3 3 4
1 3 2 3 3 6 7 7 5 4 4 5 5 4 4 4 3 3 3 3 3 3 3 3 3 2 2 2 2 3 3 3 3 3 4 4 4 4 4 4 4 4 4 4 4 4 4 4 4
4 3 3 3 3 5 6 4 1 3 4 4 4 4 4 4 4 3 3 3 3 2 2 2 2 2 2 2 3 3 3 3 3 3 4 4 4 4 4 4 4 4 5 4 4 4 4 4 5
4 5 6 4 5 5 6 6 1 3 4 4 5 5 4 3 3 3 3 3 3 2 2 2 2 2 2 3 3 3 3 3 3 4 4 4 4 4 4 4 4 5 5 5 5 5 5 5 5
Wind_Direction
328 311 260 230 206 206 215 181 160 142 134 61 54 68 79 37 347 47 40 27 23 39 54 65 48 53 55 55 59 60 60 61 63 63 61 60 60 61 60 60 60 59 61 68 74 73 70 76 82
324 286 229 224 224 215 203 183 172 136 93 98 81 90 103 75 42 50 40 18 27 50 59 60 53 57 59 59 60 60 58 59 60 62 61 60 61 61 60 59 59 60 60 61 67 71 68 70 71
283 295 222 199 220 227 186 160 151 111 102 129 96 60 51 67 53 37 25 17 49 61 60 57 53 56 60 62 62 61 59 57 58 61 59 58 59 60 59 59 61 61 59 59 59 64 66 63 63
229 184 193 214 209 221 200 145 139 138 123 86 128 112 93 51 26 28 38 53 72 67 60 62 52 53 57 61 62 61 61 62 63 62 60 58 59 59 59 58 59 59 59 59 56 58 61 59 56
227 204 196 207 214 197 168 154 159 167 145 126 165 123 107 69 49 59 62 63 71 65 57 62 52 50 53 57 59 58 60 63 66 66 63 58 57 56 57 57 59 57 57 59 58 57 59 57 54
187 208 214 214 206 189 177 186 194 197 156 126 140 128 104 79 53 60 68 63 62 62 53 59 55 51 49 52 56 56 56 58 62 64 65 61 57 56 57 56 56 54 54 56 55 54 57 56 52
213 206 222 214 203 201 185 180 201 198 187 138 46 142 126 79 48 63 76 71 65 60 53 50 52 56 51 50 50 54 52 55 58 58 61 60 58 55 55 52 52 52 53 53 51 50 51 51 47
223 188 203 208 208 207 170 163 173 231 166 77 21 184 146 47 59 85 86 75 64 54 46 40 43 44 45 52 50 47 46 48 52 53 51 56 58 55 53 50 47 47 50 52 49 46 45 45 44
221 213 217 211 206 189 164 168 129 101 130 103 48 22 48 90 108 109 90 69 54 45 38 30 31 33 33 38 46 44 40 40 46 50 49 53 52 53 54 51 49 47 46 47 47 44 38 38 48
208 219 223 206 201 172 164 172 163 169 169 194 140 72 89 106 123 128 105 68 45 33 27 25 22 20 25 29 38 39 32 30 31 30 32 32 37 40 47 56 49 46 44 45 42 35 29 19 31
168 208 177 145 128 152 166 167 181 194 213 235 232 182 137 126 120 128 109 74 49 32 24 18 15 13 15 18 19 28 30 24 23 24 16 20 34 40 38 39 44 41 37 35 30 27 22 17 11
141 110 130 128 107 154 174 174 185 216 261 321 243 169 158 156 140 128 98 60 46 34 19 11 10 6 5 9 16 21 27 26 24 19 13 12 22 23 22 17 13 15 17 13 11 13 17 10 6
162 141 90 91 106 112 138 184 206 236 279 251 143 148 155 158 134 100 83 67 47 30 17 10 6 3 2 7 16 23 26 27 31 27 17 12 13 9 9 9 6 5 4 0 357 358 9 5 3
124 126 121 96 144 189 176 231 216 235 220 172 162 163 154 139 119 98 73 53 36 18 11 8 8 3 4 6 10 20 26 24 30 28 20 19 15 4 358 0 360 358 353 349 346 348 356 356 356
126 125 136 236 234 188 204 236 232 219 198 185 183 180 171 145 116 100 61 43 16 7 5 12 11 7 7 9 12 23 28 26 24 21 17 20 13 0 357 348 349 352 347 343 346 348 352 350 350
156 190 221 206 204 208 232 248 228 194 202 208 209 206 201 185 146 58 32 29 13 4 2 12 15 13 14 16 19 24 28 32 27 23 18 16 9 359 355 351 346 342 339 339 340 331 335 335 336
198 230 241 240 213 226 233 252 235 210 216 224 227 224 216 210 228 5 23 25 9 3 359 9 14 14 16 15 23 33 32 31 29 28 23 11 5 359 357 350 346 335 332 333 331 324 322 322 328
223 238 246 246 243 249 245 249 244 220 225 234 237 235 229 226 234 237 9 20 24 12 3 2 10 10 10 11 15 24 29 23 23 23 19 11 3 358 358 353 342 337 331 333 328 324 326 318 323
228 239 256 277 288 267 254 257 255 234 235 237 236 237 234 234 238 248 287 19 17 8 357 354 360 2 6 353 335 338 352 357 6 13 8 4 1 354 356 350 339 335 324 324 322 318 308 320 316
220 242 271 285 300 276 270 268 259 237 238 245 243 238 237 234 233 233 243 316 323 334 327 329 339 345 348 337 316 316 321 325 342 355 359 359 356 354 350 349 335 332 327 331 329 321 295 299 304
241 249 264 277 296 260 285 267 241 231 238 246 245 241 235 232 231 228 231 262 293 308 312 313 321 323 325 326 319 328 321 318 328 343 346 350 349 351 347 343 340 335 332 322 322 310 296 280 295
247 266 260 260 262 265 271 278 243 226 238 238 238 234 234 229 229 234 239 260 276 294 311 310 307 314 317 307 284 293 299 307 316 316 317 330 343 349 347 337 336 327 323 314 306 303 293 277 276
234 284 250 249 253 264 245 262 262 215 243 240 237 236 234 228 229 232 237 256 277 298 312 310 302 308 310 298 281 273 282 296 303 304 308 321 333 343 344 337 334 321 313 306 303 301 291 276 272
148 135 128 216 238 256 244 246 266 236 238 238 241 242 234 226 226 232 238 260 278 309 318 309 301 300 297 289 280 273 279 289 295 302 307 311 315 324 332 330 324 316 312 302 293 289 282 276 270
203 206 247 238 237 252 228 244 259 262 242 239 253 255 232 221 220 223 228 243 268 280 287 294 301 300 292 278 276 274 273 278 283 289 291 298 303 311 314 318 313 308 304 299 293 280 273 271 267
205 228 236 256 263 276 231 245 260 258 251 253 253 253 228 222 222 226 228 234 248 260 270 276 289 294 295 287 284 276 273 276 280 284 287 285 289 294 302 302 301 299 297 293 286 278 272 267 264
181 210 287 252 283 272 256 263 269 238 253 250 249 243 236 236 235 238 237 240 243 251 265 267 275 289 297 297 292 284 282 282 282 288 288 286 288 292 294 295 294 293 289 284 277 270 269 268 264
268 156 170 208 246 262 268 263 266 252 261 251 246 246 248 243 244 249 245 250 246 243 259 266 271 277 289 291 294 295 290 288 288 289 288 289 293 293 292 292 289 290 287 277 269 269 268 267 268
176 182 205 217 258 261 274 269 291 258 261 261 262 260 256 243 241 243 244 247 247 245 249 259 267 273 281 290 293 292 296 296 293 293 295 297 295 293 291 289 289 288 285 279 271 267 265 262 266
236 222 204 228 239 244 266 273 102 281 295 287 282 278 263 249 242 245 246 239 238 241 250 260 274 275 281 285 288 291 299 297 299 302 304 306 300 295 294 289 286 282 280 278 269 265 264 259 259
Height
1514 1515 1516 1518 1517 1514 1515 1518 1519 1522 1524 1527 1527 1526 1525 1527 1528 1534 1535 1532 1532 1532 1532 1532 1532 1532 1531 1531 1531 1530 1530 1530 1530 1530 1529 1529 1529 1529 1528 1528 1528 1528 1528 1528 1528 1528 1528 1528 1528
1514 1515 1518 1518 1513 1513 1516 1518 1521 1523 1526 1528 1528 1528 1528 1530 1532 1533 1532 1532 1532 1532 1533 1532 1532 1532 1532 1532 1531 1531 1530 1530 1530 1530 1530 1529 1529 1529 1529 1528 1528 1528 1529 1528 1528 1528 1528 1528 1528
1515 1516 1518 1515 1513 1511 1515 1519 1522 1526 1528 1529 1529 1530 1530 1532 1533 1533 1532 1532 1532 1533 1533 1533 1533 1533 1532 1532 1532 1531 1531 1531 1530 1530 1530 1529 1529 1529 1529 1529 1529 1528 1528 1528 1528 1528 1528 1528 1528
1516 1518 1518 1514 1514 1517 1518 1521 1525 1526 1528 1529 1529 1530 1532 1533 1533 1532 1532 1532 1533 1533 1533 1533 1533 1533 1533 1532 1532 1532 1531 1531 1531 1530 1530 1529 1529 1529 1529 1528 1528 1528 1528 1528 1527 1527 1527 1527 1527
1515 1516 1514 1515 1516 1519 1522 1524 1526 1525 1527 1529 1530 1530 1532 1533 1532 1532 1532 1532 1533 1533 1533 1533 1533 1533 1533 1532 1532 1532 1531 1531 1530 1530 1530 1529 1529 1528 1528 1528 1528 1528 1528 1528 1527 1527 1527 1527 1527
1517 1514 1511 1512 1516 1520 1524 1526 1527 1526 1528 1530 1530 1530 1533 1533 1532 1532 1532 1532 1533 1533 1533 1533 1533 1533 1532 1532 1532 1532 1531 1531 1530 1530 1529 1529 1529 1528 1528 1528 1527 1527 1527 1527 1527 1526 1526 1526 1526
1516 1512 1510 1511 1516 1520 1524 1527 1527 1526 1527 1530 1531 1531 1532 1533 1532 1532 1532 1532 1532 1533 1533 1533 1533 1532 1532 1531 1531 1531 1531 1530 1530 1529 1529 1528 1528 1528 1527 1527 1527 1527 1526 1526 1526 1526 1525 1525 1525
1515 1514 1513 1514 1515 1518 1525 1527 1528 1528 1528 1531 1531 1531 1532 1533 1532 1532 1532 1532 1532 1532 1532 1532 1532 1532 1531 1531 1531 1530 1530 1530 1529 1529 1528 1528 1527 1527 1526 1526 1526 1525 1525 1525 1525 1524 1524 1524 1524
1515 1514 1511 1513 1515 1519 1524 1526 1528 1529 1529 1530 1531 1532 1532 1531 1531 1531 1532 1532 1532 1531 1531 1531 1531 1531 1531 1530 1530 1530 1529 1529 1528 1528 1527 1527 1526 1526 1525 1525 1525 1524 1524 1524 1523 1523 1523 1522 1522
1515 1511 1512 1516 1517 1520 1524 1525 1527 1528 1529 1530 1531 1531 1531 1531 1531 1531 1531 1531 1530 1530 1530 1530 1530 1530 1530 1529 1529 1529 1528 1528 1527 1527 1526 1526 1525 1524 1524 1524 1523 1523 1523 1522 1522 1521 1521 1520 1520
1515 1514 1517 1520 1521 1522 1524 1526 1527 1526 1527 1529 1530 1530 1530 1530 1530 1530 1530 1530 1530 1530 1529 1529 1529 1529 1528 1528 1528 1527 1526 1526 1526 1525 1525 1524 1524 1523 1523 1522 1522 1521 1521 1520 1520 1520 1519 1518 1518
1517 1519 1520 1522 1523 1524 1524 1525 1527 1527 1528 1529 1529 1529 1529 1529 1529 1529 1529 1529 1529 1529 1528 1528 1528 1527 1527 1526 1526 1525 1525 1524 1524 1523 1523 1523 1522 1521 1521 1520 1520 1519 1519 1518 1518 1517 1517 1516 1516
1518 1520 1522 1523 1524 1525 1525 1526 1526 1527 1528 1528 1528 1528 1528 1528 1528 1528 1528 1528 1527 1527 1527 1527 1526 1526 1525 1525 1524 1523 1523 1522 1522 1521 1521 1521 1520 1520 1519 1518 1518 1518 1517 1516 1516 1515 1515 1514 1514
1520 1521 1523 1524 1524 1525 1525 1526 1526 1526 1527 1527 1527 1527 1527 1527 1527 1527 1527 1526 1526 1526 1526 1525 1525 1524 1523 1523 1522 1521 1521 1521 1520 1519 1519 1518 1518 1517 1517 1516 1516 1515 1515 1514 1514 1514 1513 1512 1512
1521 1521 1522 1523 1524 1525 1525 1524 1524 1525 1526 1526 1526 1526 1526 1526 1526 1526 1525 1525 1525 1524 1524 1523 1523 1522 1521 1521 1520 1519 1519 1518 1518 1517 1516 1516 1516 1515 1515 1514 1514 1513 1512 1512 1512 1511 1511 1510 1510
1520 1518 1517 1521 1523 1524 1525 1517 1522 1524 1525 1525 1525 1525 1525 1525 1525 1524 1524 1524 1523 1523 1522 1522 1521 1520 1519 1519 1518 1517 1517 1516 1515 1515 1514 1514 1513 1513 1512 1512 1511 1511 1510 1510 1509 1509 1508 1508 1508
1516 1514 1513 1518 1522 1522 1522 1516 1521 1523 1524 1523 1523 1523 1524 1523 1523 1522 1522 1522 1522 1521 1520 1520 1519 1518 1518 1517 1516 1515 1514 1514 1513 1513 1512 1511 1511 1510 1510 1509 1508 1508 1507 1507 1507 1506 1506 1505 1505
1513 1512 1514 1515 1519 1521 1519 1516 1519 1522 1522 1521 1521 1521 1521 1521 1521 1521 1521 1520 1520 1519 1519 1518 1517 1516 1516 1515 1515 1514 1513 1512 1511 1510 1509 1509 1508 1508 1507 1506 1506 1505 1505 1504 1504 1503 1503 1503 1503
1515 1515 1514 1516 1520 1520 1516 1514 1516 1518 1519 1518 1518 1518 1518 1519 1520 1519 1519 1518 1518 1517 1516 1516 1515 1514 1514 1513 1512 1512 1511 1510 1509 1508 1507 1506 1506 1505 1504 1504 1503 1503 1502 1501 1501 1501 1500 1500 1500
1517 1516 1515 1518 1521 1520 1516 1513 1513 1515 1515 1515 1515 1515 1515 1516 1517 1516 1516 1516 1516 1515 1514 1514 1513 1512 1512 1511 1511 1510 1509 1508 1507 1506 1505 1504 1503 1502 1501 1501 1500 1499 1499 1499 1498 1498 1498 1497 1498
1516 1515 1515 1517 1519 1519 1517 1508 1508 1511 1513 1513 1513 1513 1513 1513 1514 1514 1514 1514 1513 1513 1512 1511 1510 1510 1510 1509 1508 1508 1507 1506 1505 1504 1502 1501 1501 1500 1499 1498 1497 1496 1496 1496 1495 1495 1495 1495 1496
1515 1518 1518 1518 1516 1512 1516 1503 1500 1506 1508 1509 1510 1510 1510 1511 1511 1511 1511 1511 1510 1510 1510 1509 1508 1508 1507 1506 1506 1505 1504 1503 1502 1501 1500 1499 1498 1497 1496 1495 1495 1494 1494 1493 1493 1493 1493 1493 1493
1518 1520 1519 1518 1516 1514 1514 1511 1494 1503 1503 1503 1506 1507 1507 1508 1508 1508 1508 1508 1508 1507 1507 1506 1506 1505 1504 1504 1503 1502 1502 1501 1500 1499 1497 1496 1496 1495 1494 1493 1492 1492 1491 1491 1490 1490 1490 1490 1490
1521 1520 1519 1518 1515 1512 1509 1508 1491 1494 1498 1500 1502 1504 1504 1505 1506 1506 1506 1505 1505 1505 1504 1504 1503 1502 1502 1501 1500 1500 1499 1498 1497 1496 1495 1494 1493 1492 1491 1490 1490 1489 1489 1488 1488 1488 1488 1488 1488
1520 1517 1513 1510 1508 1501 1511 1508 1493 1495 1498 1499 1500 1501 1502 1502 1503 1503 1503 1502 1502 1502 1502 1501 1500 1499 1499 1498 1497 1497 1496 1495 1494 1493 1492 1491 1490 1489 1488 1488 1487 1487 1486 1486 1485 1485 1485 1485 1485
1518 1516 1511 1505 1499 1496 1509 1500 1491 1497 1498 1498 1499 1499 1499 1500 1500 1500 1500 1500 1500 1500 1499 1498 1497 1497 1496 1495 1495 1494 1493 1492 1491 1490 1489 1488 1487 1486 1485 1485 1484 1484 1483 1483 1483 1482 1482 1482 1482
1517 1516 1517 1515 1518 1509 1493 1491 1491 1494 1495 1496 1496 1496 1497 1497 1497 1498 1498 1498 1497 1497 1497 1496 1495 1494 1493 1492 1492 1491 1490 1489 1488 1487 1486 1485 1484 1483 1482 1482 1481 1481 1481 1480 1480 1480 1479 1479 1479
1519 1518 1518 1514 1508 1496 1488 1487 1482 1489 1490 1491 1493 1493 1494 1494 1495 1495 1495 1495 1494 1495 1494 1493 1492 1491 1490 1490 1489 1488 1487 1486 1485 1484 1483 1482 1481 1480 1480 1479 1479 1478 1478 1477 1477 1477 1476 1476 1476
1520 1520 1517 1513 1511 1500 1489 1482 1486 1487 1489 1490 1491 1492 1492 1492 1492 1492 1492 1492 1492 1491 1491 1490 1490 1489 1488 1487 1486 1485 1484 1483 1482 1481 1480 1478 1478 1477 1477 1476 1476 1475 1475 1474 1474 1474 1473 1473 1473
1516 1514 1514 1511 1511 1509 1497 1487 1489 1490 1490 1491 1490 1490 1490 1490 1490 1489 1489 1489 1489 1488 1488 1487 1487 1486 1485 1484 1484 1483 1481 1480 1479 1478 1477 1476 1475 1474 1474 1473 1473 1473 1472 1471 1471 1470 1470 1469 1469